Weather History for KDCU - February, 2014

Change the Weather History Date:

Monday, February 3, 2014

  Actual Average Record
Temperature  
Mean Temperature 36 °F -  
Max Temperature 39 °F 50 °F 73 °F (1962)
Min Temperature 34 °F 31 °F 0 °F (1951)
Degree Days  
Heating Degree Days 28    
Moisture  
Dew Point 34 °F    
Average Humidity 90    
Maximum Humidity 96    
Minimum Humidity 82    
Precipitation  
Precipitation 0.27 in - - ()
Sea Level Pressure  
Sea Level Pressure 30.17 in    
Wind  
Wind Speed 9 mph (NNE)    
Max Wind Speed 12 mph    
Max Gust Speed 17 mph    
Visibility 8 miles    
Events Rain , Snow    
Averages and records for this station are not official NWS values.
T = Trace of Precipitation, MM = Missing Value Source: NWS Daily Summary

Daily Weather History Graph

Daily Weather History Graph

Search for Another Location

Airport or City:

Trip Planner

Search our weather history database for the weather conditions in past years. The results will help you decide how hot, cold, wet, or windy it might be!

Date:

Astronomy

Feb. 03, 2014 Rise Set
Actual Time 6:44 AM CST 5:19 PM CST
Civil Twilight 6:18 AM CST 5:45 PM CST
Nautical Twilight 5:48 AM CST 6:15 PM CST
Astronomical Twilight 5:18 AM CST 6:45 PM CST
Moon 8:59 AM CST (2/3) 9:55 PM CST (2/3)
Length of Visible Light 11h 27m
Length of Day
10h 34m
Waxing Crescent, 20% of the Moon is Illuminated
Feb 3
Waxing Crescent
Feb 6
First Quarter
Feb 14
Full
Feb 22
Last Quarter
Mar 1
New

Hourly Weather History & Observations

Time (CST) Temp. Windchill Dew Point Humidity Pressure Visibility Wind Dir Wind Speed Gust Speed Precip Events Conditions
12:25 AM 37.4 °F - 35.6 °F 93% 29.95 in 6.0 mi North - - 0.08 in Rain Rain
12:53 AM 37.0 °F - 36.0 °F 96% 29.99 in 8.0 mi North - - 0.15 in Rain Light Rain
1:53 AM 37.0 °F - 36.0 °F 96% 29.99 in 7.0 mi North - - 0.07 in Rain Rain
2:42 AM 37.4 °F - 35.6 °F 93% 29.98 in 10.0 mi North - - 0.03 in Rain Light Rain
2:53 AM 37.0 °F - 35.1 °F 93% 30.02 in 10.0 mi North - - 0.04 in Rain Light Rain
3:49 AM 35.6 °F - 33.8 °F 93% 30.05 in 10.0 mi North - - 0.00 in   Overcast
3:53 AM 36.0 °F - 34.0 °F 93% 30.07 in 10.0 mi North - - 0.00 in   Overcast
4:48 AM 35.6 °F - 33.8 °F 93% 30.12 in 2.5 mi North - - 0.01 in Snow Light Snow
4:53 AM 35.1 °F - 34.0 °F 96% 30.13 in 3.0 mi North - - 0.01 in Snow Light Snow
5:22 AM 35.6 °F - 33.8 °F 93% 30.14 in 10.0 mi North - - 0.00 in   Overcast
5:53 AM 35.1 °F - 33.1 °F 92% 30.17 in 10.0 mi North - - 0.00 in   Overcast
6:53 AM 34.0 °F - 32.0 °F 92% 30.17 in 10.0 mi North - - N/A   Overcast
7:53 AM 35.1 °F - 32.0 °F 89% 30.20 in 10.0 mi North - - N/A   Overcast
8:53 AM 36.0 °F 28.5 °F 33.1 °F 89% 30.23 in 10.0 mi North 10.4 mph - N/A   Overcast
9:53 AM 37.0 °F 30.4 °F 33.1 °F 86% 30.25 in 10.0 mi NE 9.2 mph - N/A   Overcast
10:53 AM 37.9 °F 31.5 °F 34.0 °F 86% 30.25 in 10.0 mi NNE 9.2 mph 17.3 mph N/A   Overcast
11:53 AM 37.9 °F 30.9 °F 34.0 °F 86% 30.23 in 9.0 mi North 10.4 mph - N/A   Overcast
12:53 PM 39.0 °F 33.4 °F 34.0 °F 82% 30.20 in 9.0 mi NNE 8.1 mph - N/A   Overcast
1:53 PM 39.0 °F 31.8 °F 34.0 °F 82% 30.20 in 9.0 mi North 11.5 mph - N/A   Overcast
2:53 PM 37.9 °F 30.9 °F 34.0 °F 86% 30.21 in 8.0 mi North 10.4 mph - N/A   Overcast
3:53 PM 37.0 °F 31.0 °F 33.1 °F 86% 30.23 in 8.0 mi North 8.1 mph - N/A   Overcast
4:53 PM 37.0 °F 29.3 °F 33.1 °F 86% 30.24 in 6.0 mi North 11.5 mph - N/A   Overcast
5:53 PM 36.0 °F 28.5 °F 33.1 °F 89% 30.24 in 8.0 mi North 10.4 mph - N/A   Overcast
6:53 PM 36.0 °F 29.0 °F 33.1 °F 89% 30.25 in 7.0 mi North 9.2 mph - N/A   Overcast
7:53 PM 35.1 °F 27.9 °F 33.1 °F 92% 30.25 in 8.0 mi North 9.2 mph - N/A   Overcast
8:06 PM 35.6 °F 29.2 °F 33.8 °F 93% 30.24 in 7.0 mi North 8.1 mph - N/A   Overcast
8:53 PM 35.1 °F 29.3 °F 33.1 °F 92% 30.26 in 7.0 mi NNE 6.9 mph - N/A   Overcast
9:53 PM 35.1 °F 30.1 °F 33.1 °F 92% 30.25 in 7.0 mi NE 5.8 mph - N/A   Overcast
10:53 PM 35.1 °F 28.6 °F 33.1 °F 92% 30.24 in 6.0 mi North 8.1 mph - N/A   Overcast
11:53 PM 35.1 °F 28.6 °F 33.1 °F 92% 30.21 in 7.0 mi NNE 8.1 mph - N/A   Overcast